{"data":{"norad_id":65957,"intl_designator":"2025-228L","name":"KUIPER-00128","alt_names":[],"object_type":"PAYLOAD","status":"ACTIVE","operator":null,"country":"US","launch_date":"2025-10-14","launch_site_code":"AFETR","launch_vehicle":null,"mission":null,"orbit_class":"UNKNOWN","rcs_meters":null,"size_class":null,"mass_kg":null,"dimensions":null,"purposes":[],"wikipedia_slug":null,"has_3d_model":false,"image_url":null,"decayed_at":null,"tle_current":{"epoch":"2026-09-20T06:09:57.130272Z","epoch_age_seconds":164708,"freshness":"FRESH","line1":"1 65957U 25228L   26263.25691123  .00002140  00000+0  30963-3 0  9999","line2":"2 65957  51.8992 212.7550 0000821  77.5090 282.5964 14.79928524 52148","mean_motion":14.79928524,"eccentricity":8.21e-5,"inclination_deg":51.8992,"raan_deg":212.755,"arg_perigee_deg":77.509,"mean_anomaly_deg":282.5964,"bstar":0.00030963,"rev_number":5214,"period_min":97.301996457769,"perigee_km":628.97442775055,"apogee_km":630.12508991635,"semimajor_km":7007.6867588334,"source":"CELESTRAK","updated_at":"2026-09-21T09:00:15.680217Z"}}}